Volver al catálogo

RADUGA 32

ActivoComunicacionesGEO
NORAD 23448·PAYLOAD·🇷🇺 Russia

Lanzado Dec 28, 1994 desde Baikonur Cosmodrome

Loading…

TLE

ActualizadoSource: Space-Track

Época: Sep 13, 2026, 19:21 UTC

1 23448U 94087A   26256.80629486 -.00000136  00000-0  00000-0 0  9994
2 23448  14.2837 350.3036 0009153 264.5665 105.4076  1.00261846133772

Sigue RADUGA 32 en tiempo real con AllMySat

Download on the App Store